Carbondale, IL

10:45 PM CDT on April 24, 2017 (GMT -0500)
Southern Illinois

Weather History for KMDH - June, 2014

Change the Weather History Date:

Wednesday, June 4, 2014

  Actual Average Record
Temperature  
Mean Temperature 78 °F -  
Max Temperature 87 °F 82 °F 102 °F (1911)
Min Temperature 71 °F 59 °F 43 °F (1929)
Cooling Degree Days 14    
Growing Degree Days 28 (Base 50)    
Moisture  
Dew Point 71 °F    
Average Humidity 85    
Maximum Humidity 96    
Minimum Humidity 63    
Precipitation  
Precipitation 0.87 in - - ()
Sea Level Pressure  
Sea Level Pressure 29.80 in    
Wind  
Wind Speed 10 mph (SW)    
Max Wind Speed 22 mph    
Max Gust Speed 29 mph    
Visibility 8 miles    
Events Fog , Rain , Thunderstorm    
Averages and records for this station are not official NWS values.
T = Trace of Precipitation, MM = Missing Value Source: NWS Daily Summary

Daily Weather History Graph

Daily Weather History Graph

Search for Another Location

Airport or City:

Trip Planner

Search our weather history database for the weather conditions in past years. The results will help you decide how hot, cold, wet, or windy it might be!

Date:

Astronomy

Jun. 04, 2014 Rise Set
Actual Time 5:35 AM CDT 8:15 PM CDT
Civil Twilight 5:04 AM CDT 8:46 PM CDT
Nautical Twilight 4:26 AM CDT 9:24 PM CDT
Astronomical Twilight 3:43 AM CDT 10:07 PM CDT
Moon 11:50 AM CDT (6/4) 12:18 AM CDT (6/4)
Length of Visible Light 15h 41m
Length of Day
14h 39m
Waxing Crescent, 39% of the Moon is Illuminated
Jun 4
Waxing Crescent
Jun 5
First Quarter
Jun 12
Full
Jun 19
Last Quarter
Jun 27
New

Hourly Weather History & Observations

Time (CDT) Temp. Heat Index Dew Point Humidity Pressure Visibility Wind Dir Wind Speed Gust Speed Precip Events Conditions
2:52 AM 73.9 °F - 70.0 °F 87% 29.87 in 10.0 mi South 6.9 mph - N/A   Clear
4:52 AM 75.0 °F - 70.0 °F 84% 29.84 in 10.0 mi SSW 9.2 mph - N/A   Clear
5:52 AM 75.0 °F - 70.0 °F 84% 29.83 in 10.0 mi SSW 10.4 mph - N/A   Clear
6:52 AM 75.0 °F - 70.0 °F 84% 29.89 in 10.0 mi SSW 10.4 mph - N/A   Clear
7:52 AM 75.9 °F - 70.0 °F 82% 29.90 in 10.0 mi SW 16.1 mph 24.2 mph 0.00 in Rain Light Rain
8:04 AM 77.0 °F - 70.0 °F 79% 29.90 in 10.0 mi SW 16.1 mph 24.2 mph N/A Rain , Thunderstorm Light Thunderstorms and Rain
8:28 AM 75.0 °F - 71.1 °F 87% 29.87 in 3.0 mi SSW 21.9 mph 27.6 mph 0.08 in Rain Rain
8:52 AM 73.9 °F - 70.0 °F 87% 29.83 in 8.0 mi SW 16.1 mph - 0.11 in Rain Light Rain
10:52 AM 80.1 °F 83.8 °F 72.0 °F 76% 29.76 in 10.0 mi SW 13.8 mph 23.0 mph N/A   Mostly Cloudy
11:52 AM 84.0 °F 89.0 °F 71.1 °F 65% 29.77 in 10.0 mi SW 21.9 mph 28.8 mph N/A   Partly Cloudy
12:52 PM 84.9 °F 90.1 °F 71.1 °F 63% 29.78 in 10.0 mi WSW 17.3 mph 24.2 mph N/A   Mostly Cloudy
1:52 PM 84.0 °F 89.6 °F 72.0 °F 67% 29.78 in 10.0 mi WSW 10.4 mph 23.0 mph N/A   Overcast
2:43 PM 82.9 °F 87.5 °F 71.1 °F 67% 29.78 in 10.0 mi WSW 10.4 mph - N/A Thunderstorm Thunderstorm
2:52 PM 82.9 °F 88.0 °F 72.0 °F 69% 29.77 in 10.0 mi SW 11.5 mph - N/A Thunderstorm Thunderstorm
3:52 PM 84.9 °F 91.4 °F 73.0 °F 67% 29.74 in 10.0 mi WSW 8.1 mph - N/A Thunderstorm Thunderstorm
4:15 PM 86.0 °F 92.2 °F 72.0 °F 63% 29.74 in 10.0 mi WSW 15.0 mph - N/A   Scattered Clouds
4:52 PM 82.9 °F 88.0 °F 72.0 °F 69% 29.75 in 10.0 mi WSW 8.1 mph - N/A   Mostly Cloudy
5:25 PM 82.9 °F 88.8 °F 73.0 °F 72% 29.75 in 10.0 mi Calm Calm - N/A Thunderstorm Thunderstorm
5:48 PM 77.0 °F - 73.4 °F 89% 29.78 in 1.0 mi West 12.7 mph - 0.21 in Rain , Thunderstorm Thunderstorms and Rain
5:52 PM 75.9 °F - 73.0 °F 91% 29.74 in 0.2 mi Variable 3.5 mph - 0.36 in Fog , Rain , Thunderstorm Heavy Thunderstorms and Rain
6:00 PM 75.9 °F - 73.9 °F 94% 29.75 in 1.0 mi North 5.8 mph - 0.01 in Rain , Thunderstorm Light Thunderstorms and Rain
6:03 PM 75.9 °F - 73.9 °F 94% 29.75 in 3.0 mi NNE 8.1 mph - 0.01 in Rain , Thunderstorm Light Thunderstorms and Rain
6:52 PM 75.9 °F - 73.0 °F 91% 29.76 in 10.0 mi Calm Calm - 0.01 in Thunderstorm Thunderstorm
7:03 PM 75.9 °F - 73.0 °F 91% 29.77 in 9.0 mi SE 4.6 mph - N/A Thunderstorm Overcast
7:11 PM 75.9 °F - 73.0 °F 91% 29.77 in 9.0 mi SE 8.1 mph - N/A Thunderstorm Overcast
7:21 PM 75.0 °F - 71.1 °F 87% 29.78 in 8.0 mi Calm Calm - 0.01 in Rain , Thunderstorm Light Rain
7:29 PM 75.0 °F - 71.1 °F 87% 29.79 in 10.0 mi Calm Calm - 0.02 in Rain , Thunderstorm Light Thunderstorms and Rain
7:38 PM 73.9 °F - 71.1 °F 91% 29.81 in 0.8 mi NE 16.1 mph 21.9 mph 0.25 in Rain , Thunderstorm Thunderstorms and Rain
7:52 PM 71.1 °F - 69.1 °F 93% 29.79 in 2.5 mi ENE 9.2 mph - 0.35 in Rain , Thunderstorm Rain
7:54 PM 71.1 °F - 69.1 °F 93% 29.80 in 3.0 mi ENE 9.2 mph - 0.01 in Rain , Thunderstorm Light Rain
8:04 PM 71.1 °F - 69.1 °F 93% 29.80 in 10.0 mi ENE 6.9 mph - 0.01 in Rain , Thunderstorm Light Rain
8:16 PM 71.1 °F - 69.1 °F 93% 29.78 in 10.0 mi East 4.6 mph - 0.01 in   Overcast
8:21 PM 71.1 °F - 69.1 °F 93% 29.79 in 10.0 mi SE 4.6 mph - 0.01 in Thunderstorm Overcast
8:29 PM 71.1 °F - 69.1 °F 93% 29.82 in 10.0 mi NW 8.1 mph - 0.01 in Thunderstorm Thunderstorm
8:37 PM 71.1 °F - 70.0 °F 96% 29.80 in 4.0 mi NNE 3.5 mph - 0.04 in Rain , Thunderstorm Thunderstorms and Rain
8:52 PM 71.1 °F - 70.0 °F 96% 29.78 in 10.0 mi NE 4.6 mph - 0.04 in Thunderstorm Thunderstorm
8:56 PM 71.1 °F - 69.1 °F 93% 29.78 in 10.0 mi Calm Calm - N/A   Overcast
10:52 PM 71.1 °F - 69.1 °F 93% 29.80 in 10.0 mi WNW 3.5 mph - N/A   Mostly Cloudy
11:49 PM 71.6 °F - 69.8 °F 94% 29.82 in 10.0 mi SSW 6.9 mph - N/A   Mostly Cloudy
11:52 PM 71.1 °F - 69.1 °F 93% 29.81 in 10.0 mi SSW 5.8 mph - N/A   Mostly Cloudy